Regional Weather Roundup
Issued by NWS Northern Indiana

Home | Current Version | Previous Version | Text Only | Print | Product List | Glossary On
Versions: 1 2 3 4 5 6 7 8 9 10 11 12 13 14 15 16 17 18 19 20 21 22 23 24 25 26 27 28 29 30 31 32 33 34 35 36 37 38 39 40 41 42 43 44 45 46 47 48 49 50
000
ASUS43 KIWX 281010
RWRIWX

KIWX WEATHER ROUNDUP
NATIONAL WEATHER SERVICE NORTHERN INDIANA
600 AM EDT TUE JUL 28 2015

NOTE: "FAIR" INDICATES FEW OR NO CLOUDS BELOW 12,000 FEET WITH NO
SIGNIFICANT WEATHER AND/OR OBSTRUCTIONS TO VISIBILITY.

* THESE STATIONS ARE NOT UNDER NWS QUALITY CONTROL. THEY ALSO MAY NOT
  REPORT WEATHER SUCH AS PRECIPITATION OR FOG.

INZ001>027-281100-
NORTHERN INDIANA

CITY           SKY/WX    TMP DP  RH WIND       PRES   REMARKS
GARY*          CLEAR     70  64  83 SE7       29.99S
VALPARAISO     CLEAR     66  61  84 NE5       30.01R
MICHIGAN CITY* CLEAR     63  63 100 CALM      30.01S
LAPORTE*       CLEAR     64  64 100 CALM      30.02R
KNOX*          CLEAR     63  63 100 NE3       29.99R
SOUTH BEND     CLEAR     66  62  87 CALM      30.02R
GOSHEN         CLEAR     63  60  90 CALM      30.02S
MONTICELLO*    PTCLDY    70  66  89 CALM      29.98R
LOGANSPORT*    MOCLDY    68  61  77 E5        30.00R
ROCHESTER*     MOCLDY    70  66  88 CALM      30.01R
WARSAW*        CLEAR     64  61  88 CALM      30.02R
ANGOLA*        CLEAR     61  48  63 CALM      30.03S
FORT WAYNE     PTCLDY    67  62  84 NE6       30.01F
HUNTINGTON*    CLOUDY    69  64  84 NE3       30.01R
PERU/GRISSOM   CLOUDY    72  66  82 E3        29.99S
MARION*        CLOUDY    69  65  86 E3        30.01R

$$
INZ028>050-281100-
CENTRAL INDIANA

CITY           SKY/WX    TMP DP  RH WIND       PRES   REMARKS
LAFAYETTE      PTCLDY    70  67  90 NE5       29.97R
KOKOMO*        CLOUDY    70  64  83 E3        30.00R
MUNCIE*        PTCLDY    68  66  93 E5        30.00R
INDIANAPOLIS   PTCLDY    74  70  87 E6        29.96F

$$
MIZ043>046-050>051-056>058-064>065-071>073-077>080-281100-
SOUTHWEST LOWER MICHIGAN

CITY           SKY/WX    TMP DP  RH WIND       PRES   REMARKS
BATTLE CREEK   CLEAR     65  62  90 NE3       30.05S
BENTON HARBOR  CLEAR     63  61  93 E3        30.01S
COLDWATER*     CLEAR     60  59  98 CALM      30.03S FOG
HILLSDALE*     CLEAR     61  61 100 CALM      30.05S
HOLLAND        CLEAR     64  62  93 CALM      30.03S FOG
GRAND RAPIDS   CLEAR     66  63  90 CALM      30.03S
KALAMAZOO      CLEAR     64  60  87 CALM      30.04S
STURGIS*       CLEAR     61  61 100 CALM      30.03R
THREE RIVERS*  FAIR      61  60  96 CALM      30.03S

$$
OHZ001>008-015>018-024>025-281100-
NORTHWEST OHIO

CITY           SKY/WX    TMP DP  RH WIND       PRES   REMARKS
DEFIANCE       CLEAR     64  60  87 NE3       30.02S
FINDLAY        CLEAR     68  63  84 E3        30.01R
TOLEDO EXPRESS CLEAR     63  62  97 CALM      30.02R
TOLEDO METCALF CLEAR     67  62  84 CALM      30.03R
LIMA           CLEAR     66  62  87 E6        30.02R

$$
AND FOR LAKE MICHIGAN COASTAL AND OPEN LAKE BUOY OBSERVATIONS

STATION/POSITION TEMP    WIND        PRES    VSBY  WAVE
                 AIR SEA DIR/SP/G                  HT/PER
                 (F)     (DEG/KT/KT) (MB)    (MI)  (FT/S)
CALUMET HARBOR    74      80/  4/  5   N/A
MICHIGAN CITY     72     110/  8/  9   N/A
BURNS HARBOR      77     130/  8/ 14 1015.9F
SAINT JOSEPH      68      CALM  /  1 1016.6F
4 MI NW BRIDGMAN  70 72  140/  6/  6   N/A           1
MICHIGAN CITY     73 74  150/  8/ 10   N/A           1

$$
&&


USA.gov is the U.S. government's official web portal to all federal, state and local government web resources and services.